Anchialos, Greece

4:17 PM EEST on July 26, 2016 (GMT +0300)
Almiros Air Base

Weather History for LGBL - April, 2013

Change the Weather History Date:

Thursday, April 11, 2013

  Actual Average Record
Temperature  
Mean Temperature 58 °F -  
Max Temperature 71 °F - - ()
Min Temperature 46 °F - - ()
Degree Days  
Heating Degree Days 6    
Growing Degree Days 8 (Base 50)    
Moisture  
Dew Point 42 °F    
Average Humidity 54    
Maximum Humidity 82    
Minimum Humidity 31    
Precipitation  
Precipitation 0.00 in - - ()
Sea Level Pressure  
Sea Level Pressure 29.96 in    
Wind  
Wind Speed 5 mph ()    
Max Wind Speed 13 mph    
Max Gust Speed -    
Visibility 6.2 miles    
Events      
T = Trace of Precipitation, MM = Missing Value Source: Averaged Metar Reports

Daily Weather History Graph

Daily Weather History Graph

Search for Another Location

Airport or City:

Trip Planner

Search our weather history database for the weather conditions in past years. The results will help you decide how hot, cold, wet, or windy it might be!

Date:

Astronomy

Apr. 11, 2013 Rise Set
Actual Time 6:57 AM EEST 8:02 PM EEST
Civil Twilight 6:30 AM EEST 8:29 PM EEST
Nautical Twilight 5:57 AM EEST 9:02 PM EEST
Astronomical Twilight 5:23 AM EEST 9:36 PM EEST
Moon 7:18 AM EEST (4/11) 9:17 PM EEST (4/11)
Length of Visible Light 13h 59m
Length of Day
13h 04m
New Moon, 1% of the Moon is Illuminated
Apr 11
New Moon
Apr 18
First Quarter
Apr 25
Full
May 2
Last Quarter
May 10
New

Hourly Weather History & Observations

Time (EEST) Temp. Windchill Dew Point Humidity Pressure Visibility Wind Dir Wind Speed Gust Speed Precip Events Conditions
12:50 AM 50.0 °F - 42.8 °F 76% 29.95 in 6.2 mi West 4.6 mph - N/A   Partly Cloudy
1:50 AM 50.0 °F - 42.8 °F 76% 29.95 in 6.2 mi Calm Calm - N/A   Partly Cloudy
2:50 AM 51.8 °F - 41.0 °F 67% 29.95 in 6.2 mi West 5.8 mph - N/A   Partly Cloudy
3:50 AM 48.2 °F - 41.0 °F 76% 29.95 in 6.2 mi WNW 4.6 mph - N/A   Partly Cloudy
4:50 AM 46.4 °F 44.3 °F 39.2 °F 76% 29.92 in 6.2 mi WNW 4.6 mph - N/A   Partly Cloudy
5:50 AM 46.4 °F 44.3 °F 41.0 °F 81% 29.92 in 6.2 mi NW 4.6 mph - N/A   Partly Cloudy
6:20 AM 48.2 °F - 41.0 °F 76% 29.92 in 6.2 mi West 9.2 mph - N/A   Partly Cloudy
6:50 AM 48.2 °F - 41.0 °F 76% 29.92 in 6.2 mi West 8.1 mph - N/A   Scattered Clouds
7:20 AM 46.4 °F - 41.0 °F 81% 29.95 in 6.2 mi Calm Calm - N/A   Scattered Clouds
7:50 AM 53.6 °F - 42.8 °F 67% 29.95 in 6.2 mi Calm Calm - N/A   Scattered Clouds
8:20 AM 55.4 °F - 44.6 °F 67% 29.95 in - Calm Calm - N/A   Clear
8:50 AM 59.0 °F - 44.6 °F 59% 29.95 in - Calm Calm - N/A   Clear
9:20 AM 59.0 °F - 42.8 °F 55% 29.95 in - WNW 8.1 mph - N/A   Clear
9:50 AM 62.6 °F - 44.6 °F 52% 29.98 in - WNW 5.8 mph - N/A   Clear
10:20 AM 64.4 °F - 44.6 °F 49% 29.95 in - West 11.5 mph - N/A   Clear
10:50 AM 66.2 °F - 39.2 °F 37% 29.98 in - West 8.1 mph - N/A   Clear
11:20 AM 68.0 °F - 42.8 °F 40% 29.98 in - West 5.8 mph - N/A   Clear
11:50 AM 69.8 °F - 39.2 °F 33% 29.98 in - WNW 4.6 mph - N/A   Clear
12:20 PM 69.8 °F - 39.2 °F 33% 29.98 in - West 4.6 mph - N/A   Clear
12:50 PM 71.6 °F - 39.2 °F 31% 29.98 in 6.2 mi SE 4.6 mph - N/A   Partly Cloudy
1:20 PM 69.8 °F - 39.2 °F 33% 29.98 in 6.2 mi East 12.7 mph - N/A   Partly Cloudy
1:50 PM 69.8 °F - 46.4 °F 43% 29.98 in 6.2 mi East 11.5 mph - N/A   Partly Cloudy
2:20 PM 69.8 °F - 41.0 °F 35% 29.98 in 6.2 mi East 10.4 mph - N/A   Partly Cloudy
2:50 PM 69.8 °F - 41.0 °F 35% 29.95 in 6.2 mi East 10.4 mph - N/A   Partly Cloudy
3:20 PM 69.8 °F - 39.2 °F 33% 29.95 in 6.2 mi East 11.5 mph - N/A   Partly Cloudy
3:50 PM 69.8 °F - 41.0 °F 35% 29.95 in 6.2 mi ESE 11.5 mph - N/A   Partly Cloudy
4:20 PM 69.8 °F - 41.0 °F 35% 29.95 in 6.2 mi ESE 11.5 mph - N/A   Partly Cloudy
4:50 PM 69.8 °F - 41.0 °F 35% 29.95 in 6.2 mi ESE 11.5 mph - N/A   Partly Cloudy
5:20 PM 69.8 °F - 42.8 °F 38% 29.95 in - ESE 11.5 mph - N/A   Clear
5:50 PM 69.8 °F - 41.0 °F 35% 29.92 in - East 10.4 mph - N/A   Clear
6:20 PM 68.0 °F - 42.8 °F 40% 29.92 in - ESE 9.2 mph - N/A   Clear
6:50 PM 66.2 °F - 42.8 °F 43% 29.95 in - ESE 8.1 mph - N/A   Clear
7:20 PM 64.4 °F - 42.8 °F 45% 29.95 in - ESE 8.1 mph - N/A   Clear
7:50 PM 60.8 °F - 46.4 °F 59% 29.95 in 6.2 mi East 6.9 mph - N/A   Partly Cloudy
8:20 PM 59.0 °F - 44.6 °F 59% 29.95 in 6.2 mi East 6.9 mph - N/A   Partly Cloudy
8:50 PM 59.0 °F - 46.4 °F 63% 29.95 in 6.2 mi East 11.5 mph - N/A   Partly Cloudy
9:50 PM 57.2 °F - 48.2 °F 72% 29.98 in 6.2 mi Calm Calm - N/A   Partly Cloudy
10:50 PM 51.8 °F - 42.8 °F 71% 30.01 in 6.2 mi Calm Calm - N/A   Partly Cloudy
11:50 PM 48.2 °F - 42.8 °F 82% 30.01 in 6.2 mi WSW 5.8 mph - N/A   Partly Cloudy